DAL7638 KABQ-KLAS

Flight info

Callsign DAL7638
Flight time 1h 17m
Altitude 30000
Route RDRNR3 GUP DCT HAHAA RKSTR4
Aircraft A21N/M-SDE2E3FGHIRWXY/LB1

Departure

Time 2026-05-04 01:22
Airport Albuquerque International Sunport (KABQ)

Arrival

Time 2026-05-04 02:40
Airport Harry Reid International Airport (KLAS)
Time Latitude Longitude Altitude Speed Heading
2026-05-04 00:42 35.04686 -106.61692 5322 ft 0 kts 13°
2026-05-04 01:03 35.04684 -106.61693 5317 ft 2 kts 13°
2026-05-04 01:03 35.04659 -106.61702 5317 ft 4 kts 19°
2026-05-04 01:03 35.04634 -106.61711 5323 ft 4 kts 355°
2026-05-04 01:04 35.04626 -106.61714 5321 ft 1 kts 269°
2026-05-04 01:04 35.04626 -106.61713 5321 ft 0 kts 269°
2026-05-04 01:15 35.04626 -106.61710 5328 ft 0 kts 269°
2026-05-04 01:18 35.04626 -106.61714 5328 ft 3 kts 269°
2026-05-04 01:18 35.04625 -106.61824 5327 ft 13 kts 268°
2026-05-04 01:18 35.04594 -106.61950 5320 ft 18 kts 213°
2026-05-04 01:19 35.04562 -106.62000 5324 ft 4 kts 259°
2026-05-04 01:19 35.04559 -106.62042 5326 ft 6 kts 267°
2026-05-04 01:19 35.04553 -106.62106 5320 ft 8 kts 250°
2026-05-04 01:19 35.04534 -106.62131 5319 ft 0 kts 208°
2026-05-04 01:21 35.04530 -106.62133 5321 ft 3 kts 204°
2026-05-04 01:21 35.04428 -106.62144 5332 ft 8 kts 150°
2026-05-04 01:21 35.04437 -106.61975 5329 ft 47 kts 86°
2026-05-04 01:21 35.04424 -106.61154 5325 ft 140 kts 91°
2026-05-04 01:22 35.04443 -106.59680 5355 ft 204 kts 90°
2026-05-04 01:22 35.04488 -106.57825 5752 ft 233 kts 95°
2026-05-04 01:22 35.04424 -106.55743 5953 ft 262 kts 95°
2026-05-04 01:22 35.04583 -106.53516 6636 ft 264 kts 76°
2026-05-04 01:23 35.05610 -106.51671 7453 ft 269 kts 41°
2026-05-04 01:23 35.07328 -106.50825 8166 ft 269 kts
2026-05-04 01:23 35.09148 -106.51272 8613 ft 273 kts 328°
2026-05-04 01:23 35.10507 -106.52887 8744 ft 277 kts 293°
2026-05-04 01:24 35.10938 -106.55150 8928 ft 276 kts 268°
2026-05-04 01:24 35.10803 -106.57491 9542 ft 277 kts 261°
2026-05-04 01:24 35.10506 -106.59819 10522 ft 278 kts 259°
2026-05-04 01:24 35.10203 -106.62159 11431 ft 280 kts 261°
2026-05-04 01:25 35.09939 -106.64531 12337 ft 283 kts 263°
2026-05-04 01:25 35.09721 -106.66936 13255 ft 286 kts 264°
2026-05-04 01:25 35.09542 -106.69332 14105 ft 290 kts 265°
2026-05-04 01:25 35.09381 -106.71806 14937 ft 293 kts 265°
2026-05-04 01:26 35.09230 -106.74329 15754 ft 297 kts 266°
2026-05-04 01:26 35.09265 -106.76848 16565 ft 301 kts 278°
2026-05-04 01:26 35.09654 -106.79367 17414 ft 303 kts 279°
2026-05-04 01:26 35.10046 -106.81910 18278 ft 306 kts 279°
2026-05-04 01:27 35.10438 -106.84481 19035 ft 309 kts 279°
2026-05-04 01:27 35.10828 -106.87063 19698 ft 311 kts 279°
2026-05-04 01:27 35.11220 -106.89663 19762 ft 310 kts 279°
2026-05-04 01:27 35.11613 -106.92253 19832 ft 309 kts 279°
2026-05-04 01:28 35.12002 -106.94831 19847 ft 309 kts 279°
2026-05-04 01:28 35.12391 -106.97411 19849 ft 308 kts 279°
2026-05-04 01:28 35.12777 -106.99982 19846 ft 307 kts 279°
2026-05-04 01:28 35.13163 -107.02552 19841 ft 307 kts 279°
2026-05-04 01:29 35.13551 -107.05146 20101 ft 316 kts 279°
2026-05-04 01:29 35.13955 -107.07869 20487 ft 331 kts 279°
2026-05-04 01:29 35.14370 -107.10664 21148 ft 337 kts 279°
2026-05-04 01:29 35.14789 -107.13486 21880 ft 339 kts 279°
2026-05-04 01:30 35.15211 -107.16330 22629 ft 341 kts 279°
2026-05-04 01:30 35.15635 -107.19198 23383 ft 344 kts 279°
2026-05-04 01:30 35.16063 -107.22072 23993 ft 346 kts 279°
2026-05-04 01:30 35.16494 -107.24975 24642 ft 346 kts 279°
2026-05-04 01:31 35.16934 -107.27868 25290 ft 347 kts 279°
2026-05-04 01:31 35.17400 -107.30765 25932 ft 347 kts 280°
2026-05-04 01:31 35.17878 -107.33666 26575 ft 348 kts 280°
2026-05-04 01:31 35.18357 -107.36562 27198 ft 348 kts 280°
2026-05-04 01:32 35.18839 -107.39485 27835 ft 349 kts 280°
2026-05-04 01:32 35.19316 -107.42395 28385 ft 350 kts 280°
2026-05-04 01:32 35.19793 -107.45322 28935 ft 352 kts 280°
2026-05-04 01:32 35.20279 -107.48334 29525 ft 353 kts 279°
2026-05-04 01:33 35.20733 -107.51175 29821 ft 353 kts 280°
2026-05-04 01:33 35.21674 -107.57064 29867 ft 350 kts 279°
2026-05-04 01:34 35.22606 -107.62916 29873 ft 350 kts 279°
2026-05-04 01:34 35.23540 -107.68759 29874 ft 350 kts 279°
2026-05-04 01:35 35.24491 -107.74715 29843 ft 367 kts 279°
2026-05-04 01:35 35.26112 -107.80745 29861 ft 377 kts 289°
2026-05-04 01:35 35.27111 -107.83722 30049 ft 378 kts 289°
2026-05-04 01:36 35.28111 -107.86699 30047 ft 378 kts 289°
2026-05-04 01:36 35.30112 -107.92652 30033 ft 378 kts 289°
2026-05-04 01:37 35.32101 -107.98552 30000 ft 378 kts 289°
2026-05-04 01:37 35.34112 -108.04517 29969 ft 378 kts 289°
2026-05-04 01:38 35.36115 -108.10450 29935 ft 378 kts 289°
2026-05-04 01:38 35.36826 -108.13517 29952 ft 374 kts 276°
2026-05-04 01:38 35.36996 -108.16695 29928 ft 374 kts 272°
2026-05-04 01:39 35.37249 -108.23093 29880 ft 374 kts 272°
2026-05-04 01:39 35.37482 -108.29472 29856 ft 374 kts 272°
2026-05-04 01:40 35.37716 -108.35842 29852 ft 374 kts 272°
2026-05-04 01:40 35.37956 -108.42259 29852 ft 374 kts 272°
2026-05-04 01:41 35.38184 -108.48638 29845 ft 374 kts 272°
2026-05-04 01:41 35.38415 -108.54998 29847 ft 373 kts 272°
2026-05-04 01:42 35.38640 -108.61319 29835 ft 373 kts 272°
2026-05-04 01:42 35.38860 -108.67703 29840 ft 373 kts 272°
2026-05-04 01:43 35.39075 -108.74038 29828 ft 372 kts 272°
2026-05-04 01:43 35.39180 -108.77171 30001 ft 372 kts 272°
2026-05-04 01:43 35.39284 -108.80345 29984 ft 372 kts 272°
2026-05-04 01:44 35.39493 -108.86710 29973 ft 373 kts 272°
2026-05-04 01:44 35.39701 -108.93074 29950 ft 374 kts 272°
2026-05-04 01:45 35.39906 -108.99448 29937 ft 374 kts 272°
2026-05-04 01:45 35.40200 -109.08982 29909 ft 375 kts 272°
2026-05-04 01:46 35.40397 -109.15376 29911 ft 375 kts 272°
2026-05-04 01:46 35.40593 -109.21781 29892 ft 375 kts 272°
2026-05-04 01:47 35.40787 -109.28172 29886 ft 375 kts 272°
2026-05-04 01:47 35.40968 -109.34571 29880 ft 375 kts 271°
2026-05-04 01:48 35.41149 -109.40964 29861 ft 375 kts 271°
2026-05-04 01:48 35.41328 -109.47346 29844 ft 374 kts 272°
2026-05-04 01:49 35.41506 -109.53738 29830 ft 374 kts 271°
2026-05-04 01:49 35.41682 -109.60129 29829 ft 375 kts 271°
2026-05-04 01:50 35.41853 -109.66497 29818 ft 374 kts 271°
2026-05-04 01:50 35.42013 -109.72905 29819 ft 375 kts 271°
2026-05-04 01:51 35.42171 -109.79254 29820 ft 375 kts 271°
2026-05-04 01:51 35.42333 -109.85644 29803 ft 375 kts 271°
2026-05-04 01:52 35.42493 -109.92057 29800 ft 375 kts 271°
2026-05-04 01:52 35.42645 -109.98411 29798 ft 375 kts 271°
2026-05-04 01:53 35.42788 -110.04621 29806 ft 375 kts 271°
2026-05-04 01:53 35.42934 -110.11049 29805 ft 375 kts 271°
2026-05-04 01:54 35.43082 -110.17463 29820 ft 375 kts 271°
2026-05-04 01:54 35.43217 -110.23813 29808 ft 375 kts 271°
2026-05-04 01:55 35.43323 -110.29132 29813 ft 374 kts 271°
2026-05-04 01:55 35.43473 -110.36592 29792 ft 374 kts 271°
2026-05-04 01:56 35.43583 -110.41886 29799 ft 374 kts 271°
2026-05-04 01:56 35.43711 -110.48223 29774 ft 374 kts 270°
2026-05-04 01:57 35.43835 -110.54605 29801 ft 375 kts 270°
2026-05-04 01:57 35.43955 -110.60982 29786 ft 374 kts 270°
2026-05-04 01:58 35.44065 -110.67373 29782 ft 374 kts 270°
2026-05-04 01:58 35.44180 -110.73754 29777 ft 374 kts 270°
2026-05-04 01:59 35.44295 -110.80136 29770 ft 374 kts 270°
2026-05-04 01:59 35.44400 -110.86541 29764 ft 375 kts 270°
2026-05-04 02:00 35.44498 -110.92933 29765 ft 375 kts 270°
2026-05-04 02:00 35.44601 -110.99335 29768 ft 375 kts 270°
2026-05-04 02:01 35.44697 -111.05729 29769 ft 375 kts 270°
2026-05-04 02:01 35.44785 -111.12148 29768 ft 375 kts 270°
2026-05-04 02:02 35.44873 -111.18558 29764 ft 376 kts 270°
2026-05-04 02:02 35.44959 -111.24937 29770 ft 377 kts 270°
2026-05-04 02:03 35.45042 -111.31368 29788 ft 377 kts 270°
2026-05-04 02:03 35.45128 -111.37818 29798 ft 378 kts 270°
2026-05-04 02:04 35.45206 -111.44270 29825 ft 378 kts 270°
2026-05-04 02:04 35.45240 -111.47453 29702 ft 374 kts 270°
2026-05-04 02:04 35.45273 -111.50598 29276 ft 366 kts 270°
2026-05-04 02:05 35.45306 -111.53707 28632 ft 363 kts 270°
2026-05-04 02:05 35.45338 -111.56804 28044 ft 361 kts 269°
2026-05-04 02:05 35.45369 -111.59869 27443 ft 358 kts 269°
2026-05-04 02:05 35.45400 -111.62913 26855 ft 356 kts 269°
2026-05-04 02:06 35.45429 -111.65942 26282 ft 353 kts 269°
2026-05-04 02:06 35.45459 -111.68946 25702 ft 351 kts 269°
2026-05-04 02:06 35.45485 -111.71928 25127 ft 348 kts 269°
2026-05-04 02:06 35.45511 -111.74880 24590 ft 346 kts 268°
2026-05-04 02:07 35.45537 -111.77840 24002 ft 346 kts 268°
2026-05-04 02:07 35.45563 -111.80788 23467 ft 345 kts 268°
2026-05-04 02:07 35.45589 -111.83710 22899 ft 341 kts 268°
2026-05-04 02:07 35.45661 -111.86579 22294 ft 340 kts 271°
2026-05-04 02:08 35.45913 -111.89467 21656 ft 340 kts 274°
2026-05-04 02:08 35.46259 -111.92337 21055 ft 341 kts 275°
2026-05-04 02:08 35.46651 -111.95224 20466 ft 341 kts 276°
2026-05-04 02:08 35.47051 -111.98093 19891 ft 341 kts 276°
2026-05-04 02:09 35.47443 -112.00964 19322 ft 341 kts 276°
2026-05-04 02:09 35.47826 -112.03838 18762 ft 342 kts 276°
2026-05-04 02:09 35.48200 -112.06724 18201 ft 342 kts 275°
2026-05-04 02:09 35.48565 -112.09611 17594 ft 342 kts 275°
2026-05-04 02:10 35.48922 -112.12485 17038 ft 341 kts 275°
2026-05-04 02:10 35.49278 -112.15358 16512 ft 339 kts 275°
2026-05-04 02:10 35.49631 -112.18217 15977 ft 338 kts 274°
2026-05-04 02:10 35.49982 -112.21056 15453 ft 336 kts 274°
2026-05-04 02:11 35.50334 -112.23880 14926 ft 334 kts 274°
2026-05-04 02:11 35.50679 -112.26659 14403 ft 333 kts 274°
2026-05-04 02:11 35.51026 -112.29479 14065 ft 333 kts 274°
2026-05-04 02:11 35.51373 -112.32296 13980 ft 334 kts 274°
2026-05-04 02:12 35.51720 -112.35128 13975 ft 336 kts 274°
2026-05-04 02:12 35.52067 -112.37959 13960 ft 335 kts 274°
2026-05-04 02:12 35.52417 -112.40795 13948 ft 335 kts 274°
2026-05-04 02:12 35.52760 -112.43623 13938 ft 335 kts 274°
2026-05-04 02:13 35.53098 -112.46411 13926 ft 335 kts 274°
2026-05-04 02:13 35.53443 -112.49242 13901 ft 335 kts 274°
2026-05-04 02:13 35.53787 -112.52071 13879 ft 336 kts 274°
2026-05-04 02:13 35.54132 -112.54911 13881 ft 336 kts 275°
2026-05-04 02:14 35.54476 -112.57756 13885 ft 336 kts 275°
2026-05-04 02:14 35.54819 -112.60583 13874 ft 336 kts 274°
2026-05-04 02:14 35.55161 -112.63426 13874 ft 336 kts 274°
2026-05-04 02:14 35.55499 -112.66257 13874 ft 335 kts 274°
2026-05-04 02:15 35.55839 -112.69102 13872 ft 335 kts 274°
2026-05-04 02:15 35.56176 -112.71939 13868 ft 336 kts 274°
2026-05-04 02:15 35.56510 -112.74742 13868 ft 336 kts 275°
2026-05-04 02:15 35.56851 -112.77579 13869 ft 336 kts 275°
2026-05-04 02:16 35.57191 -112.80418 13874 ft 335 kts 274°
2026-05-04 02:16 35.57526 -112.83251 13868 ft 334 kts 274°
2026-05-04 02:16 35.57860 -112.86081 13862 ft 335 kts 274°
2026-05-04 02:16 35.58195 -112.88923 13863 ft 336 kts 274°
2026-05-04 02:17 35.58529 -112.91762 13860 ft 336 kts 274°
2026-05-04 02:17 35.58863 -112.94605 13858 ft 335 kts 274°
2026-05-04 02:17 35.59198 -112.97429 13859 ft 335 kts 274°
2026-05-04 02:17 35.59534 -113.00259 13851 ft 334 kts 274°
2026-05-04 02:18 35.59867 -113.03100 13849 ft 335 kts 274°
2026-05-04 02:18 35.60195 -113.05926 13850 ft 335 kts 274°
2026-05-04 02:18 35.60523 -113.08767 13849 ft 335 kts 274°
2026-05-04 02:18 35.60851 -113.11600 13829 ft 336 kts 274°
2026-05-04 02:19 35.61182 -113.14439 13825 ft 335 kts 274°
2026-05-04 02:19 35.61505 -113.17241 13824 ft 335 kts 274°
2026-05-04 02:19 35.61831 -113.20075 13825 ft 335 kts 274°
2026-05-04 02:19 35.62159 -113.22913 13823 ft 335 kts 274°
2026-05-04 02:20 35.62485 -113.25741 13804 ft 335 kts 274°
2026-05-04 02:20 35.62812 -113.28591 13801 ft 336 kts 274°
2026-05-04 02:20 35.63140 -113.31435 13795 ft 336 kts 274°
2026-05-04 02:20 35.63465 -113.34276 13807 ft 335 kts 274°
2026-05-04 02:21 35.63786 -113.37105 13789 ft 335 kts 274°
2026-05-04 02:21 35.64107 -113.39945 13790 ft 335 kts 273°
2026-05-04 02:21 35.64428 -113.42773 13775 ft 334 kts 273°
2026-05-04 02:21 35.64748 -113.45616 13787 ft 337 kts 273°
2026-05-04 02:22 35.65068 -113.48463 13784 ft 337 kts 274°
2026-05-04 02:22 35.65420 -113.51327 13752 ft 339 kts 276°
2026-05-04 02:22 35.65854 -113.54179 13757 ft 340 kts 277°
2026-05-04 02:22 35.66331 -113.56992 13765 ft 340 kts 278°
2026-05-04 02:23 35.66832 -113.59831 13762 ft 340 kts 278°
2026-05-04 02:23 35.67330 -113.62676 13740 ft 340 kts 278°
2026-05-04 02:23 35.67816 -113.65520 13744 ft 339 kts 277°
2026-05-04 02:23 35.68291 -113.68372 13746 ft 340 kts 277°
2026-05-04 02:24 35.68759 -113.71218 13741 ft 340 kts 277°
2026-05-04 02:24 35.69225 -113.74073 13749 ft 340 kts 277°
2026-05-04 02:24 35.69686 -113.76925 13738 ft 340 kts 277°
2026-05-04 02:24 35.70146 -113.79783 13734 ft 341 kts 277°
2026-05-04 02:25 35.70608 -113.82648 13731 ft 341 kts 277°
2026-05-04 02:25 35.71070 -113.85504 13732 ft 340 kts 277°
2026-05-04 02:25 35.71532 -113.88363 13722 ft 341 kts 277°
2026-05-04 02:25 35.71986 -113.91185 13717 ft 341 kts 277°
2026-05-04 02:26 35.72450 -113.94085 13721 ft 341 kts 277°
2026-05-04 02:26 35.72903 -113.96904 13714 ft 340 kts 277°
2026-05-04 02:26 35.73360 -113.99749 13716 ft 339 kts 277°
2026-05-04 02:26 35.73816 -114.02568 13698 ft 329 kts 276°
2026-05-04 02:27 35.74260 -114.05282 13704 ft 311 kts 276°
2026-05-04 02:27 35.74678 -114.07858 13720 ft 304 kts 276°
2026-05-04 02:27 35.75079 -114.10375 13708 ft 303 kts 277°
2026-05-04 02:27 35.75484 -114.12917 13707 ft 302 kts 277°
2026-05-04 02:28 35.75974 -114.15442 13689 ft 307 kts 288°
2026-05-04 02:28 35.76941 -114.17804 13687 ft 309 kts 294°
2026-05-04 02:28 35.77964 -114.20129 13376 ft 307 kts 293°
2026-05-04 02:28 35.78984 -114.22426 12942 ft 305 kts 294°
2026-05-04 02:29 35.80005 -114.24717 12529 ft 304 kts 294°
2026-05-04 02:29 35.81021 -114.27006 12104 ft 304 kts 293°
2026-05-04 02:29 35.82030 -114.29286 11716 ft 303 kts 294°
2026-05-04 02:29 35.83034 -114.31556 11342 ft 301 kts 293°
2026-05-04 02:30 35.84083 -114.33790 10990 ft 302 kts 299°
2026-05-04 02:30 35.85313 -114.35897 10606 ft 302 kts 301°
2026-05-04 02:30 35.86589 -114.37952 10203 ft 302 kts 302°
2026-05-04 02:30 35.87884 -114.39987 9843 ft 301 kts 303°
2026-05-04 02:31 35.89176 -114.42010 9657 ft 299 kts 303°
2026-05-04 02:31 35.90462 -114.44031 9660 ft 299 kts 303°
2026-05-04 02:31 35.91738 -114.46055 9671 ft 300 kts 302°
2026-05-04 02:31 35.93017 -114.48098 9678 ft 300 kts 302°
2026-05-04 02:32 35.94288 -114.50137 9685 ft 299 kts 302°
2026-05-04 02:32 35.95551 -114.52167 9684 ft 298 kts 303°
2026-05-04 02:32 35.96804 -114.54207 9678 ft 297 kts 301°
2026-05-04 02:32 35.98016 -114.56259 9429 ft 291 kts 301°
2026-05-04 02:33 35.99199 -114.58269 9083 ft 289 kts 301°
2026-05-04 02:33 36.00373 -114.60259 8703 ft 291 kts 301°
2026-05-04 02:33 36.01537 -114.62249 8215 ft 284 kts 301°
2026-05-04 02:33 36.02706 -114.64229 7656 ft 286 kts 300°
2026-05-04 02:34 36.03882 -114.66208 7346 ft 284 kts 301°
2026-05-04 02:34 36.05043 -114.68154 7038 ft 283 kts 301°
2026-05-04 02:34 36.06203 -114.70099 6953 ft 275 kts 300°
2026-05-04 02:34 36.07049 -114.72085 6964 ft 249 kts 281°
2026-05-04 02:35 36.07265 -114.74099 6972 ft 230 kts 264°
2026-05-04 02:35 36.07275 -114.76074 6936 ft 228 kts 264°
2026-05-04 02:35 36.07314 -114.78023 6723 ft 226 kts 264°
2026-05-04 02:35 36.07333 -114.79969 6461 ft 225 kts 263°
2026-05-04 02:36 36.07340 -114.81886 5969 ft 224 kts 263°
2026-05-04 02:36 36.07340 -114.83846 5422 ft 237 kts 263°
2026-05-04 02:36 36.07341 -114.85976 5054 ft 260 kts 264°
2026-05-04 02:36 36.07346 -114.88281 4982 ft 271 kts 264°
2026-05-04 02:37 36.07353 -114.90591 4985 ft 271 kts 264°
2026-05-04 02:37 36.07358 -114.92904 4947 ft 268 kts 264°
2026-05-04 02:37 36.07361 -114.95201 4685 ft 265 kts 264°
2026-05-04 02:37 36.07362 -114.97484 4362 ft 267 kts 264°
2026-05-04 02:38 36.07363 -114.99793 4023 ft 267 kts 264°
2026-05-04 02:38 36.07365 -115.02080 3694 ft 263 kts 265°
2026-05-04 02:38 36.07369 -115.04277 3397 ft 242 kts 266°
2026-05-04 02:38 36.07372 -115.05590 3212 ft 218 kts 266°
2026-05-04 02:39 36.07371 -115.07378 2964 ft 204 kts 266°
2026-05-04 02:39 36.07368 -115.09644 2583 ft 195 kts 265°
2026-05-04 02:39 36.07367 -115.10770 2405 ft 192 kts 263°
2026-05-04 02:39 36.07366 -115.12387 2147 ft 189 kts 264°
2026-05-04 02:40 36.07332 -115.13812 2122 ft 118 kts 265°
2026-05-04 02:40 36.07332 -115.14290 2128 ft 0 kts 293°
2026-05-04 02:40 36.07409 -115.14470 2128 ft 47 kts 303°
2026-05-04 02:40 36.07478 -115.14600 2129 ft 0 kts 307°
2026-05-04 02:41 36.07477 -115.14598 2129 ft 0 kts 307°
2026-05-04 02:41 36.07517 -115.14644 2131 ft 7 kts 343°
2026-05-04 02:41 36.07531 -115.14645 2127 ft 14 kts 356°
2026-05-04 02:41 36.07750 -115.14670 2120 ft 25 kts 338°
2026-05-04 02:42 36.07849 -115.14647 2118 ft 25 kts 76°
2026-05-04 02:42 36.07834 -115.14450 2120 ft 25 kts 94°
2026-05-04 02:42 36.07853 -115.14190 2117 ft 28 kts 51°
2026-05-04 02:42 36.07969 -115.14079 2116 ft 13 kts 47°
2026-05-04 02:43 36.07995 -115.14037 2116 ft 0 kts 57°